Showing default

IRIDIUM 139, 42963

Orbit data source: Space-Track

IRIDIUM 139, 42963 is a payload satellite owned by Iridium (US) in LEO that was launched on Mon, 09 Oct 2017 UTC via an FALCON 9 launch vehicle from the Air Force Western Test Range (AFWTR). Payload-class satellites include a variety of spacecraft equipped with specific instruments for various scientific and technological missions. These include communications satellites like Starlink; space stations such as the ISS; scientific satellites like the Hubble; Earth observation satellites from companies like Planet Labs, Umbra, and HawkEye 360; GPS; miniature CubeSats for education and research; and military/defense satellites.

Loading next visibility...
Identifier
42963, 2017-061J
Orbit
LEO
Country
Flag of USUS
Related business
Manufacturer
OATK SSG Gilbert
Mission
Operational Commercial Communications
Bus & Motor
ELITEBUS, Unknown motor
Mass
860 kg wet, 700 kg dry
Launch date (UTC)
2017-10-09 (8 years ago)
Launch vehicle
FALCON 9
Launch site
Air Force Western Test Range (AFWTR)
Object type
Payload
Rocket body
Debris
Shape & HBR
Trap Box + 2 Pan, 4.8 m
Radar Cross Section
10.154 m², Large (>1 m²)

Expand to show TLE details & history
Last TLE update: 2 days ago

TLE from 2 days ago
0 IRIDIUM 139
1 42963U 17061J   25306.51220632  .00000327  00000-0  10973-3 0  9991
2 42963  86.3944 120.0987 0001875  83.2228 276.9181 14.34217144422354
Epoch: 2025-11-02T12:17Z
TLE epoch observation values (Epoch: 2025-11-02T12:17:34.626Z)
Latitude
-0.00001°
Longitude
-106.32245°
Altitude
780.559 km
Speed
7.464 km/s
True Right ascension
08h 00m 23s
True Declination
0° 00' 00"
Sunlit
Object was in daylight at epoch
Visualization orbit readout
Latitude
Unknown
Longitude
Unknown
Altitude
Unknown
Speed
Unknown
Apparent Right ascension
Unknown
Apparent Declination
Unknown
Sunlit
N/A
Visualization observer readout
Local Sidereal Time
22:38:19
Azimuth
Unknown
Elevation
Unknown
Doppler factor
Unknown
Orbital elements
Apogee altitude
775.975 km
Perigee altitude
773.293 km
Semi-major axis
7,152.771 km
Eccentricity
0.00019
Inclination
86.3944°
RAAN
120.0987°
Arg. of periapsis
83.2228°
True anomaly
276.89677°
Mean anomaly
276.9181°
Eccentric anomaly
276.90744°
Mean motion
3.58783 °/min
Orbital period
100.34 mins
BSTAR
0.00010973
Loading maneuver chart data...
Computing Atmospheric mass density...
Loading historical data...
Loading historical data...
Loading historical data...
Loading historical data...
Loading historical data...
Loading historical data...
Loading historical data...

Documentation

Showing up to 5 results
|